Lake Fork, ID

2:42 AM MDT on October 01, 2016 (GMT -0600)
McCall

Weather History for KMYL - January, 2013

Change the Weather History Date:

Thursday, January 10, 2013

  Actual Average Record
Temperature  
Mean Temperature 24 °F 20 °F  
Max Temperature 30 °F 28 °F 46 °F (1990)
Min Temperature 17 °F 11 °F -15 °F (1949)
Degree Days  
Heating Degree Days 41 45  
Month to date heating degree days 490 459  
Since 1 July heating degree days 3830 4533  
Cooling Degree Days 0 0  
Month to date cooling degree days 0 0  
Year to date cooling degree days 0 0  
Moisture  
Dew Point 19 °F    
Average Humidity 85    
Maximum Humidity 92    
Minimum Humidity 77    
Precipitation  
Precipitation 0.12 in 0.06 in 1.06 in (1995)
Month to date precipitation 0.97 0.58  
Year to date precipitation 0.97 0.58  
Sea Level Pressure  
Sea Level Pressure 29.65 in    
Wind  
Wind Speed 9 mph (NW)    
Max Wind Speed 18 mph    
Max Gust Speed 25 mph    
Visibility 4 miles    
Events Fog , Snow    
T = Trace of Precipitation, MM = Missing Value Source: NWS Daily Summary

Daily Weather History Graph

Daily Weather History Graph

Search for Another Location

Airport or City:

Trip Planner

Search our weather history database for the weather conditions in past years. The results will help you decide how hot, cold, wet, or windy it might be!

Date:

Astronomy

Jan. 10, 2013 Rise Set
Actual Time 8:20 AM MST 5:23 PM MST
Civil Twilight 7:47 AM MST 5:56 PM MST
Nautical Twilight 7:11 AM MST 6:33 PM MST
Astronomical Twilight 6:35 AM MST 7:08 PM MST
Moon 7:04 AM MST (1/10) 4:37 PM MST (1/10)
Length of Visible Light 10h 08m
Length of Day
9h 02m
Waning Crescent, 2% of the Moon is Illuminated
Jan 10
Waning Crescent
Jan 11
New
Jan 18
First Quarter
Jan 26
Full
Feb 3
Last Quarter

Hourly Weather History & Observations

Time (MST) Temp. Windchill Dew Point Humidity Pressure Visibility Wind Dir Wind Speed Gust Speed Precip Events Conditions
12:23 AM 30.2 °F 22.6 °F 28.4 °F 93% 29.61 in 1.0 mi NNW 8.1 mph - 0.02 in Snow Light Snow
12:32 AM 28.4 °F 19.1 °F 26.6 °F 93% 29.61 in 0.8 mi NNW 10.4 mph 17.3 mph 0.03 in Snow Light Snow
12:51 AM 27.0 °F 15.6 °F 24.1 °F 89% 29.65 in 0.5 mi North 13.8 mph 25.3 mph 0.04 in Fog , Snow Snow
1:11 AM 26.6 °F 16.8 °F 23.0 °F 86% 29.60 in 1.0 mi North 10.4 mph 24.2 mph 0.03 in Snow Light Snow
1:26 AM 26.6 °F 15.7 °F 23.0 °F 86% 29.60 in 1.0 mi NNW 12.7 mph 21.9 mph 0.03 in Snow Light Snow
1:35 AM 26.6 °F 14.7 °F 23.0 °F 86% 29.60 in 1.0 mi NNW 15.0 mph 21.9 mph 0.03 in Snow Light Snow
1:43 AM 26.6 °F 15.7 °F 23.0 °F 86% 29.60 in 0.8 mi NNW 12.7 mph 21.9 mph 0.04 in Snow Light Snow
1:51 AM 25.0 °F 12.6 °F 23.0 °F 92% 29.65 in 1.0 mi NNW 15.0 mph - 0.04 in Snow Light Snow
1:58 AM 26.6 °F 15.7 °F 21.2 °F 80% 29.60 in 1.8 mi NNW 12.7 mph 24.2 mph 0.01 in Snow Light Snow
2:06 AM 24.8 °F 13.4 °F 21.2 °F 86% 29.60 in 2.0 mi NNW 12.7 mph 19.6 mph 0.01 in Snow Light Snow
2:45 AM 26.6 °F 17.5 °F 21.2 °F 80% 29.61 in 1.5 mi NNW 9.2 mph - 0.01 in Snow Light Snow
2:51 AM 26.1 °F 16.2 °F 21.0 °F 81% 29.66 in 1.2 mi NW 10.4 mph - 0.01 in Snow Light Snow
3:31 AM 24.8 °F 16.9 °F 21.2 °F 86% 29.60 in 2.5 mi WNW 6.9 mph - 0.02 in Snow Light Snow
3:38 AM 24.8 °F 17.9 °F 21.2 °F 86% 29.60 in 4.0 mi WNW 5.8 mph - 0.02 in Snow Light Snow
3:51 AM 25.0 °F 19.3 °F 21.9 °F 88% 29.65 in 4.0 mi NW 4.6 mph - 0.02 in Snow Light Snow
4:08 AM 24.8 °F 19.1 °F 21.2 °F 86% 29.59 in 6.0 mi West 4.6 mph - 0.00 in Snow Light Snow
4:51 AM 25.0 °F 15.5 °F 21.0 °F 85% 29.64 in 10.0 mi WNW 9.2 mph - 0.00 in   Overcast
5:51 AM 24.1 °F 15.2 °F 21.0 °F 88% 29.63 in 10.0 mi West 8.1 mph - N/A   Overcast
6:30 AM 24.8 °F 17.9 °F 19.4 °F 80% 29.57 in 9.0 mi WNW 5.8 mph - 0.00 in Snow Light Snow
6:51 AM 24.1 °F 16.0 °F 19.9 °F 84% 29.65 in 4.0 mi WNW 6.9 mph - 0.00 in Snow Light Snow
7:07 AM 23.0 °F 13.9 °F 19.4 °F 86% 29.58 in 4.0 mi WNW 8.1 mph - 0.00 in Snow Light Snow
7:20 AM 23.0 °F 13.9 °F 19.4 °F 86% 29.59 in 2.5 mi WNW 8.1 mph - 0.00 in Snow Light Snow
7:29 AM 23.0 °F 12.4 °F 19.4 °F 86% 29.59 in 4.0 mi WNW 10.4 mph - 0.00 in Snow Light Snow
7:51 AM 23.0 °F 13.1 °F 19.9 °F 88% 29.67 in 8.0 mi WNW 9.2 mph - 0.00 in   Overcast
8:51 AM 21.9 °F 11.7 °F 19.0 °F 89% 29.66 in 9.0 mi West 9.2 mph - 0.00 in   Mostly Cloudy
9:51 AM 21.9 °F 12.5 °F 18.0 °F 85% 29.67 in 10.0 mi WNW 8.1 mph - N/A   Overcast
10:51 AM 21.9 °F 9.2 °F 17.1 °F 82% 29.71 in 10.0 mi WNW 13.8 mph 18.4 mph N/A   Overcast
11:51 AM 21.9 °F 8.2 °F 17.1 °F 82% 29.71 in 10.0 mi WNW 16.1 mph - 0.00 in   Overcast
12:24 PM 21.2 °F 9.5 °F 17.6 °F 86% 29.60 in 3.0 mi NW 11.5 mph 21.9 mph 0.00 in Snow Light Snow
12:29 PM 21.2 °F 8.9 °F 17.6 °F 86% 29.60 in 2.0 mi NW 12.7 mph - 0.00 in Snow Light Snow
12:39 PM 21.2 °F 10.9 °F 17.6 °F 86% 29.61 in 3.0 mi WNW 9.2 mph 17.3 mph 0.00 in Snow Light Snow
12:51 PM 21.0 °F 7.6 °F 16.0 °F 81% 29.72 in 7.0 mi West 15.0 mph 20.7 mph 0.00 in   Overcast
1:51 PM 21.0 °F 9.3 °F 16.0 °F 81% 29.73 in 10.0 mi WNW 11.5 mph - N/A   Overcast
2:48 PM 19.4 °F 7.9 °F 15.8 °F 86% 29.63 in 2.5 mi West 10.4 mph - 0.00 in Snow Light Snow
2:51 PM 19.9 °F 8.6 °F 16.0 °F 85% 29.74 in 2.5 mi WNW 10.4 mph - 0.00 in Snow Light Snow
3:03 PM 19.4 °F 7.9 °F 15.8 °F 86% 29.63 in 1.5 mi West 10.4 mph - 0.00 in Snow Light Snow
3:09 PM 19.4 °F 8.6 °F 15.8 °F 86% 29.63 in 1.2 mi West 9.2 mph - 0.00 in Snow Light Snow
3:51 PM 19.9 °F 10.1 °F 16.0 °F 85% 29.76 in 1.5 mi NW 8.1 mph - 0.01 in Snow Light Snow
4:02 PM 19.4 °F 8.6 °F 15.8 °F 86% 29.64 in 2.5 mi NW 9.2 mph - 0.00 in Snow Light Snow
4:19 PM 19.4 °F 7.9 °F 15.8 °F 86% 29.64 in 3.0 mi WNW 10.4 mph - 0.00 in Snow Light Snow
4:28 PM 19.4 °F 10.4 °F 15.8 °F 86% 29.65 in 2.5 mi WNW 6.9 mph - 0.00 in Snow Light Snow
4:36 PM 19.4 °F 9.5 °F 15.8 °F 86% 29.65 in 2.5 mi WNW 8.1 mph - 0.00 in Snow Light Snow
4:57 PM 19.4 °F 8.6 °F 15.8 °F 86% 29.65 in 3.0 mi WNW 9.2 mph - 0.00 in Snow Light Snow
5:18 PM 19.4 °F 10.4 °F 15.8 °F 86% 29.66 in 2.5 mi WNW 6.9 mph - 0.00 in Snow Light Snow
5:41 PM 19.4 °F 11.5 °F 15.8 °F 86% 29.65 in 4.0 mi WNW 5.8 mph - 0.00 in Snow Light Snow
5:51 PM 19.9 °F 13.4 °F 15.1 °F 81% 29.77 in 6.0 mi WNW 4.6 mph - 0.00 in Snow Light Snow
6:51 PM 19.9 °F - 15.1 °F 81% 29.76 in 10.0 mi Calm Calm - 0.00 in   Overcast
7:51 PM 19.0 °F 13.9 °F 15.1 °F 85% 29.77 in 10.0 mi NW 3.5 mph - N/A   Overcast
8:27 PM 19.4 °F 12.8 °F 15.8 °F 86% 29.64 in 4.0 mi WNW 4.6 mph - 0.00 in Snow Light Snow
8:51 PM 19.0 °F 11.1 °F 15.1 °F 85% 29.77 in 5.0 mi WNW 5.8 mph - 0.00 in Snow Light Snow
9:51 PM 19.0 °F 11.1 °F 14.0 °F 81% 29.77 in 8.0 mi WNW 5.8 mph - 0.00 in   Overcast